User: anonymous   Login
Location: Caltech
(34.1382°N, 118.1253°W)
Time: 04:55:19
(UTC-07:00)
Language:

ERBS - Orbit

View from above orbital plane
View from above orbital plane
View from above satellite
View from above satellite

Ground track
Ground track

The orbit data is extracted from the following two-line orbital elements,

1 15354U 84108B   14297.15691058  .00013991  00000-0  47909-3 0  6214
2 15354 057.0126 310.6160 0021740 079.1576 281.1918 15.30336695649355
Epoch (UTC): 24 October 2014 03:45:57
Eccentricity: 0.0021740
inclination: 57.0126°
perigee height: 460 km
apogee height: 490 km
right ascension of ascending node: 310.6160°
argument of perigee: 79.1576°
revolutions per day: 15.30336695
mean anomaly at epoch: 281.1918°
orbit number at epoch: 64935

The dashed part of the orbit path shows where the satellite is in the earth's shadow,  

DLR